Weather History for Maykop, Russia

Change the Weather History Date:

Friday, February 1, 2013

  Actual Average Record
Temperature  
Mean Temperature 40 °F -  
Max Temperature 46 °F - - ()
Min Temperature 35 °F - - ()
Degree Days  
Heating Degree Days 24    
Moisture  
Dew Point 33 °F    
Average Humidity 78    
Maximum Humidity 93    
Minimum Humidity 46    
Precipitation  
Precipitation 0.00 in - - ()
Sea Level Pressure  
Sea Level Pressure 29.78 in    
Wind  
Wind Speed 2 mph ()    
Max Wind Speed 7 mph    
Max Gust Speed -    
Visibility 6.2 miles    
Events Rain    
T = Trace of Precipitation, MM = Missing Value Source: Averaged Metar Reports

Daily Weather History Graph

Daily Weather History Graph

Search for Another Location

Airport:

Trip Planner

Search our weather history database for the weather conditions in past years. The results will help you decide how hot, cold, wet, or windy it might be!

Date:

Astronomy

Feb. 01, 2013 Rise Set
Actual Time 8:38 AM MSK 6:28 PM MSK
Civil Twilight 8:07 AM MSK 6:59 PM MSK
Nautical Twilight 7:32 AM MSK 7:34 PM MSK
Astronomical Twilight 6:58 AM MSK 8:08 PM MSK
Moon No Moon Rise 10:44 AM MSK (2/1)
Length of Visible Light 10h 51m
Length of Day
9h 49m
Waning Gibbous, 74% of the Moon is Illuminated
Feb 1
Waning Gibbous
Feb 3
Last Quarter
Feb 10
New
Feb 18
First Quarter
Feb 26
Full

Hourly Weather History & Observations

Time (MSK) Temp. Windchill Dew Point Humidity Pressure Visibility Wind Dir Wind Speed Gust Speed Precip Events Conditions
12:00 AM 37.4 °F - 33.8 °F 87% 29.80 in 6.2 mi NW 2.2 mph - N/A   Overcast
1:00 AM 37.4 °F - 33.8 °F 87% 29.77 in 6.2 mi Calm Calm - N/A   Overcast
2:00 AM 37.4 °F - 35.6 °F 93% 29.77 in 6.2 mi North 2.2 mph - N/A   Overcast
3:00 AM 37.4 °F - 35.6 °F 93% 29.77 in 6.2 mi NE 2.2 mph - N/A   Overcast
4:00 AM 37.4 °F - 35.6 °F 93% 29.77 in 6.2 mi Calm Calm - N/A   Overcast
5:00 AM 35.6 °F - 33.8 °F 93% 29.77 in 6.2 mi South 2.2 mph - N/A   Overcast
6:00 AM 35.6 °F - 33.8 °F 93% 29.77 in 6.2 mi South 2.2 mph - N/A   Overcast
7:00 AM 35.6 °F - 33.8 °F 93% 29.77 in 6.2 mi South 2.2 mph - N/A   Overcast
8:00 AM 35.6 °F - 33.8 °F 93% 29.77 in 6.2 mi West 2.2 mph - N/A   Overcast
9:00 AM 35.6 °F 31.8 °F 33.8 °F 93% 29.77 in 6.2 mi South 4.5 mph - N/A   Overcast
10:00 AM 37.4 °F - 33.8 °F 87% 29.80 in 6.2 mi Calm Calm - N/A   Overcast
11:00 AM 37.4 °F - 33.8 °F 87% 29.80 in 6.2 mi Calm Calm - N/A   Overcast
12:00 PM 39.2 °F - 32.0 °F 75% 29.80 in - SSE 2.2 mph - N/A   Clear
1:00 PM 41.0 °F - 30.2 °F 65% 29.77 in - SSE 2.2 mph - N/A   Clear
2:00 PM 46.4 °F - 30.2 °F 53% 29.77 in - South 2.2 mph - N/A   Clear
3:00 PM 46.4 °F 43.0 °F 26.6 °F 46% 29.74 in 6.2 mi WNW 6.7 mph - N/A   Mostly Cloudy
4:00 PM 44.6 °F 40.8 °F 26.6 °F 49% 29.77 in 6.2 mi West 6.7 mph - N/A   Overcast
5:00 PM 44.6 °F 40.8 °F 28.4 °F 53% 29.77 in 6.2 mi West 6.7 mph - N/A   Overcast
6:00 PM 42.8 °F 40.2 °F 30.2 °F 61% 29.77 in 6.2 mi West 4.5 mph - N/A   Overcast
7:00 PM 42.8 °F 40.2 °F 32.0 °F 66% 29.77 in 6.2 mi NW 4.5 mph - N/A   Overcast
8:00 PM 41.0 °F - 32.0 °F 70% 29.80 in 6.2 mi Calm Calm - N/A   Overcast
9:00 PM 41.0 °F 38.1 °F 33.8 °F 76% 29.80 in 6.2 mi WNW 4.5 mph - N/A   Overcast
10:00 PM 39.2 °F - 35.6 °F 87% 29.80 in 6.2 mi Calm Calm - N/A Rain Light Rain Showers
11:00 PM 39.2 °F - 35.6 °F 87% 29.80 in 6.2 mi Calm Calm - N/A Rain Light Rain Showers